Hourly Data Report for October 07, 2015

All times are specified in Local Standard Time (LST). Add 1 hour to adjust for Daylight Saving Time where and when it is observed.

OTTAWA INTL A
ONTARIO

45°19'00.000" N
75°40'00.000" W
114.90 m
6106001
71628
YOW

Download Data

Hourly Data (October 2015)
Hourly Data Report for October 7, 2015
Temp Definition
°C
Dew Point Temp Definition
°C
Rel Hum Definition
%
Wind Dir Definition
10's deg

Wind Spd Definition
km/h
Visibility Definition
km
Stn Press Definition
kPa
Hmdx Definition


Wind Chill Definition


Weather Definition


TIME
00:00 Legend Double Dagger 11.2 10.4 95 21 10 24.1 100.09     LegendNANA
01:00 Legend Double Dagger 10.8 10.2 96 21 6 24.1 100.08     Cloudy
02:00 Legend Double Dagger 9.4 8.8 96 26 10 24.1 100.07     LegendNANA
03:00 Legend Double Dagger 8.6 8.2 97 25 11 24.1 100.04     LegendNANA
04:00 Legend Double Dagger 9.7 8.6 93 25 12 24.1 100.04     Mostly Cloudy
05:00 Legend Double Dagger 7.7 7.0 95 26 10 24.1 100.06     LegendNANA
06:00 Legend Double Dagger 9.5 8.6 94 26 6 16.1 100.07     LegendNANA
07:00 Legend Double Dagger 10.5 9.4 93 23 8 24.1 100.10     Mostly Cloudy
08:00 Legend Double Dagger 11.8 9.6 86 26 13 24.1 100.15     LegendNANA
09:00 Legend Double Dagger 14.0 9.5 74 28 21 24.1 100.15     LegendNANA
10:00 Legend Double Dagger 14.7 9.1 69 27 27 24.1 100.15     Mainly Clear
11:00 Legend Double Dagger 16.9 9.2 60 26 26 24.1 100.15     LegendNANA
12:00 Legend Double Dagger 16.6 8.1 57 28 23 24.1 100.14     LegendNANA
13:00 Legend Double Dagger 17.5 7.4 51 29 22 24.1 100.13     Mainly Clear
14:00 Legend Double Dagger 17.8 7.1 49 27 22 24.1 100.10     LegendNANA
15:00 Legend Double Dagger 17.9 6.5 47 27 20 24.1 100.11     LegendNANA
16:00 Legend Double Dagger 16.7 5.1 46 29 24 24.1 100.16     Mainly Clear
17:00 Legend Double Dagger 15.4 4.5 48 32 18 24.1 100.20     LegendNANA
18:00 Legend Double Dagger 12.4 3.9 56 32 14 24.1 100.27     LegendNANA
19:00 Legend Double Dagger 12.7 4.0 55 34 16 24.1 100.39     Mainly Clear
20:00 Legend Double Dagger 11.2 3.3 58 36 14 24.1 100.47     LegendNANA
21:00 Legend Double Dagger 9.8 2.4 60 33 8 24.1 100.54     LegendNANA
22:00 Legend Double Dagger 7.6 2.3 69 32 11 24.1 100.61     Clear
23:00 Legend Double Dagger 6.8 1.9 71 33 11 24.1 100.65     LegendNANA

Notes on Data Quality.

Legend

  • E = Estimated
  • M = Missing
  • NA = Not Available
  • ‡ = Partner data that is not subject to review by the National Climate Archives
Date modified: